SL-8 DEB *, 3045

Orbit data source: Space-Track

SL-8 DEB *, 3045 is space debris in LEO originally from a launch on Fri, 03 Sep 1965 UTC launched from the Tyuratam Missile And Space Complex (TTMTR). Debris objects in space refer to the collection of defunct objects orbiting the Earth. Examples of debris include non-operational satellites, rocket bodies, and fragments generated from explosions, collisions, or faulty payload assembly.

Loading next visibility...
Identifier
3045, 1965-070G
Orbit
LEO
Last TLE update
19 hours ago
Origin
Manufacturer
Unknown
Mission
Spacecraft
Bus & Motor
Unknown
Mass
Unknown
Launch date (UTC)
1965-09-03 (60 years ago)
Launch vehicle
Unknown
Launch site
Tyuratam Missile And Space Complex (TTMTR)
Object type
Payload
Rocket body
Debris
Shape & HBR
Unknown
Radar Cross Section
Small (<0.1 m²)

Expand to show TLE details & history

TLE from 19 hours ago
0 SL-8 DEB *
1 03045U 65070G   25182.07983992  .00000122  00000-0  13253-2 0  9996
2 03045  55.4315 115.5190 0289614   8.5690   9.2907 12.44541431645222
Epoch: 2025-07-01T01:54Z
TLE epoch observation values (Epoch: 2025-07-01T01:54:58.169Z)
Latitude
15.08771°
Longitude
178.04684°
Altitude
1,263.089 km
Speed
7.328 km/s
True Right ascension
08h 24m 40s
True Declination
15° 00' 26"
Sunlit
Object was in daylight at epoch
Visualization orbit readout
Latitude
29.50905°
Longitude
-171.96695°
Altitude
1,284.739 km
Speed
7.31 km/s
Apparent Right ascension
09h 24m 22s
Apparent Declination
-10° 00' 44"
Sunlit
Object is in daylight
Visualization observer readout
Local Sidereal Time
08:57:26
Azimuth
171.367° S
Elevation
39.682°
Doppler factor
1
Orbital elements
Apogee altitude
1,715.114 km
Perigee altitude
1,259.524 km
Semi-major axis
7,865.456 km
Eccentricity
0.02896
Inclination
55.4315°
RAAN
115.519°
Arg. of periapsis
8.569°
True anomaly
Unknown
Mean anomaly
9.2907°
Eccentric anomaly
Unknown
Mean motion
3.11141 °/min
Orbital period
115.7 mins
BSTAR
0.0013253
Loading maneuver chart data...
Loading SW <> Apogee altitude chart data...
Loading historical data...
Loading historical data...
Loading historical data...
Loading historical data...
Loading historical data...
Loading historical data...
Loading historical data...
Other satellites on launch #70 in the year 1965 (1965-09-03 UTC)

SL-8 DEB * Visibility forecast

Observer location: undefined°, undefined°

Span
Click to sort rows by Start time (UTC) header in descending order
Start Az.
Max El. time (UTC)
Max El. Az.
Max El.
End time (UTC)
End Az.
10 mins2025-07-01 21:17:12.311Z171.431° S2025-07-01 21:19:12.311Z135.355° SSE37.632°2025-07-01 21:27:12.311Z54.461° ENE
14 mins2025-07-01 23:14:12.311Z257.496° W2025-07-01 23:20:12.311Z321.237° NNW37.556°2025-07-01 23:28:12.311Z41.62° NE
12 mins2025-07-02 01:18:12.311Z306.375° NW2025-07-02 01:23:12.311Z351.907° N25.872°2025-07-02 01:30:12.311Z49.427° ENE
15 mins2025-07-02 03:20:12.311Z320.804° NNW2025-07-02 03:27:12.311Z25.353° NE31.977°2025-07-02 03:35:12.311Z87.597° E
17 mins2025-07-02 05:21:12.311Z313.238° NW2025-07-02 05:29:12.311Z169.617° S44.986°2025-07-02 05:38:12.311Z136.921° SSE
13 mins2025-07-02 07:23:12.311Z287.851° WNW2025-07-02 07:29:12.311Z243.938° WSW23.548°2025-07-02 07:36:12.311Z195.209° SSW
12 mins2025-07-02 20:21:12.311Z171.716° S2025-07-02 20:26:12.311Z122.537° SE27.205°2025-07-02 20:33:12.311Z62.522° ENE
|